• In Netherlands
  • List of Countries
  • For 7 days
  • Water Temperature
  • Satellite Maps
  • Weather Map
  • Weather Widgets
  • user-avatar
    Login

    Hourly Weather Sumgayit

    Today, 19 July, Thursday

    Time Temperature Precipitation Wind Pressure Humidity
    00:00 +28°C° 0 mm 1 mps 732 mmHg 56%
    01:00 +28°C° 0 mm 1 mps 732 mmHg 57%
    02:00 +28°C° 0 mm 1 mps 732 mmHg 57%
    03:00 +28°C° 0 mm 1 mps 732 mmHg 56%
    04:00 +28°C° 0 mm 1 mps 732 mmHg 55%
    05:00 +28°C° 0 mm 1 mps 732 mmHg 54%
    06:00 +28°C° 0 mm 1 mps 732 mmHg 53%
    07:00 +30°C° 0 mm 1 mps 732 mmHg 50%
    08:00 +31°C° 0 mm 2 mps 732 mmHg 47%
    09:00 +32°C° 0 mm 2 mps 732 mmHg 45%
    10:00 +34°C° 0 mm 3 mps 731 mmHg 42%
    11:00 +35°C° 0 mm 4 mps 731 mmHg 39%
    12:00 +36°C° 0 mm 5 mps 731 mmHg 37%
    13:00 +36°C° 0 mm 5 mps 731 mmHg 36%
    14:00 +38°C° 0 mm 6 mps 730 mmHg 35%
    15:00 +38°C° 0 mm 6 mps 730 mmHg 35%
    16:00 +36°C° 0 mm 6 mps 730 mmHg 37%
    17:00 +35°C° 0 mm 6 mps 729 mmHg 40%
    18:00 +34°C° 0 mm 6 mps 729 mmHg 43%
    19:00 +34°C° 0 mm 5 mps 729 mmHg 46%
    20:00 +33°C° 0 mm 3 mps 730 mmHg 49%
    21:00 +31°C° 0 mm 2 mps 730 mmHg 52%
    22:00 +30°C° 0 mm 3 mps 730 mmHg 53%
    23:00 +30°C° 0 mm 3 mps 730 mmHg 54%

    Tomorrow, 20 July, Friday

    Time Temperature Precipitation Wind Pressure Humidity
    00:00 +29°C° 0 mm 4 mps 730 mmHg 55%
    01:00 +29°C° 0 mm 4 mps 730 mmHg 54%
    02:00 +29°C° 0 mm 5 mps 730 mmHg 54%
    03:00 +29°C° 0 mm 5 mps 730 mmHg 53%
    04:00 +29°C° 0 mm 5 mps 730 mmHg 52%
    05:00 +29°C° 0 mm 5 mps 731 mmHg 51%
    06:00 +30°C° 0 mm 4 mps 731 mmHg 50%
    07:00 +32°C° 0 mm 4 mps 731 mmHg 47%
    08:00 +33°C° 0 mm 4 mps 731 mmHg 45%
    09:00 +34°C° 0 mm 4 mps 732 mmHg 42%
    10:00 +35°C° 0 mm 5 mps 731 mmHg 41%
    11:00 +35°C° 0 mm 5 mps 731 mmHg 40%
    12:00 +36°C° 0 mm 5 mps 731 mmHg 39%
    13:00 +36°C° 0 mm 6 mps 731 mmHg 40%
    14:00 +36°C° 0 mm 7 mps 731 mmHg 41%
    15:00 +36°C° 0 mm 7 mps 730 mmHg 43%
    16:00 +35°C° 0 mm 8 mps 730 mmHg 45%
    17:00 +34°C° 0 mm 8 mps 730 mmHg 47%
    18:00 +33°C° 0 mm 8 mps 730 mmHg 50%
    19:00 +32°C° 0 mm 8 mps 730 mmHg 50%
    20:00 +32°C° 0 mm 8 mps 731 mmHg 51%
    21:00 +31°C° 0 mm 8 mps 731 mmHg 51%
    22:00 +31°C° 0 mm 8 mps 731 mmHg 50%
    23:00 +30°C° 0 mm 7 mps 731 mmHg 49%

    Day after tomorrow, 21 July, Saturday

    Time Temperature Precipitation Wind Pressure Humidity
    00:00 +30°C° 0 mm 7 mps 731 mmHg 47%
    01:00 +30°C° 0 mm 6 mps 731 mmHg 48%
    02:00 +30°C° 0 mm 6 mps 731 mmHg 48%
    03:00 +29°C° 0 mm 6 mps 731 mmHg 49%
    04:00 +29°C° 0 mm 6 mps 731 mmHg 50%
    05:00 +29°C° 0 mm 6 mps 732 mmHg 52%
    06:00 +29°C° 0 mm 6 mps 732 mmHg 53%
    07:00 +32°C° 0 mm 6 mps 732 mmHg 48%
    08:00 +33°C° 0 mm 6 mps 732 mmHg 44%
    09:00 +34°C° 0 mm 6 mps 733 mmHg 39%
    10:00 +35°C° 0 mm 7 mps 733 mmHg 38%
    11:00 +36°C° 0 mm 7 mps 733 mmHg 36%
    12:00 +37°C° 0 mm 8 mps 733 mmHg 35%
    13:00 +37°C° 0 mm 8 mps 732 mmHg 35%
    14:00 +37°C° 0 mm 9 mps 732 mmHg 35%
    15:00 +37°C° 0 mm 9 mps 732 mmHg 36%
    16:00 +35°C° 0 mm 9 mps 732 mmHg 38%
    17:00 +34°C° 0 mm 9 mps 732 mmHg 39%
    18:00 +34°C° 0 mm 10 mps 732 mmHg 41%
    19:00 +33°C° 0 mm 9 mps 733 mmHg 42%
    20:00 +33°C° 0 mm 9 mps 733 mmHg 43%
    21:00 +32°C° 0 mm 8 mps 733 mmHg 44%
    22:00 +32°C° 0 mm 8 mps 733 mmHg 44%
    23:00 +32°C° 0 mm 7 mps 733 mmHg 44%

    22 July, Sunday

    Time Temperature Precipitation Wind Pressure Humidity
    00:00 +30°C° 0 mm 6 mps 733 mmHg 43%
    01:00 +30°C° 0 mm 6 mps 733 mmHg 44%
    02:00 +30°C° 0 mm 5 mps 733 mmHg 45%
    03:00 +29°C° 0 mm 5 mps 733 mmHg 46%
    04:00 +29°C° 0 mm 4 mps 733 mmHg 46%
    05:00 +30°C° 0 mm 4 mps 733 mmHg 47%
    06:00 +30°C° 0 mm 4 mps 734 mmHg 47%
    07:00 +32°C° 0 mm 5 mps 734 mmHg 43%
    08:00 +33°C° 0 mm 5 mps 734 mmHg 39%
    09:00 +34°C° 0 mm 6 mps 734 mmHg 35%
    10:00 +35°C° 0 mm 6 mps 734 mmHg 35%
    11:00 +36°C° 0 mm 7 mps 734 mmHg 34%
    12:00 +36°C° 0 mm 7 mps 734 mmHg 34%
    13:00 +37°C° 0 mm 8 mps 733 mmHg 34%
    14:00 +37°C° 0 mm 8 mps 733 mmHg 34%
    15:00 +37°C° 0 mm 8 mps 732 mmHg 35%
    16:00 +35°C° 0 mm 8 mps 732 mmHg 36%
    17:00 +35°C° 0 mm 7 mps 732 mmHg 37%
    18:00 +34°C° 0 mm 7 mps 732 mmHg 39%
    19:00 +33°C° 0 mm 7 mps 732 mmHg 40%
    20:00 +33°C° 0 mm 7 mps 733 mmHg 42%
    21:00 +32°C° 0 mm 6 mps 733 mmHg 43%
    22:00 +32°C° 0 mm 6 mps 733 mmHg 44%
    23:00 +30°C° 0 mm 6 mps 732 mmHg 44%

    23 July, Monday

    Time Temperature Precipitation Wind Pressure Humidity
    00:00 +30°C° 0 mm 6 mps 732 mmHg 45%
    01:00 +30°C° 0 mm 5 mps 732 mmHg 46%
    02:00 +29°C° 0 mm 5 mps 732 mmHg 46%
    03:00 +29°C° 0 mm 5 mps 732 mmHg 47%
    04:00 +29°C° 0 mm 5 mps 732 mmHg 47%
    05:00 +29°C° 0 mm 5 mps 732 mmHg 46%
    06:00 +30°C° 0 mm 6 mps 732 mmHg 45%
    07:00 +32°C° 0 mm 6 mps 732 mmHg 42%
    08:00 +33°C° 0 mm 6 mps 732 mmHg 39%
    09:00 +34°C° 0 mm 6 mps 733 mmHg 35%
    10:00 +35°C° 0 mm 7 mps 732 mmHg 34%
    11:00 +35°C° 0 mm 7 mps 732 mmHg 33%
    12:00 +36°C° 0 mm 7 mps 732 mmHg 32%
    13:00 +36°C° 0 mm 7 mps 732 mmHg 32%
    14:00 +36°C° 0 mm 7 mps 731 mmHg 33%
    15:00 +36°C° 0 mm 7 mps 731 mmHg 33%
    16:00 +35°C° 0 mm 7 mps 731 mmHg 34%
    17:00 +35°C° 0 mm 7 mps 731 mmHg 36%
    18:00 +34°C° 0 mm 7 mps 731 mmHg 38%
    19:00 +33°C° 0 mm 7 mps 731 mmHg 39%
    20:00 +33°C° 0 mm 7 mps 731 mmHg 41%
    21:00 +32°C° 0 mm 7 mps 732 mmHg 42%
    22:00 +32°C° 0 mm 6 mps 732 mmHg 42%
    23:00 +32°C° 0 mm 6 mps 731 mmHg 42%

    24 July, Tuesday

    Time Temperature Precipitation Wind Pressure Humidity
    00:00 +30°C° 0 mm 6 mps 731 mmHg 43%
    01:00 +30°C° 0 mm 5 mps 731 mmHg 43%
    02:00 +30°C° 0 mm 5 mps 731 mmHg 44%
    03:00 +29°C° 0 mm 5 mps 731 mmHg 44%
    04:00 +30°C° 0 mm 5 mps 731 mmHg 43%
    05:00 +30°C° 0 mm 4 mps 731 mmHg 42%
    06:00 +30°C° 0 mm 4 mps 732 mmHg 41%
    07:00 +32°C° 0 mm 4 mps 732 mmHg 38%
    08:00 +34°C° 0 mm 4 mps 732 mmHg 35%
    09:00 +35°C° 0 mm 5 mps 732 mmHg 32%
    10:00 +35°C° 0 mm 5 mps 732 mmHg 32%
    11:00 +36°C° 0 mm 5 mps 732 mmHg 31%
    12:00 +37°C° 0 mm 5 mps 732 mmHg 31%
    13:00 +38°C° 0 mm 6 mps 732 mmHg 31%
    14:00 +38°C° 0 mm 6 mps 732 mmHg 31%
    15:00 +38°C° 0 mm 7 mps 732 mmHg 32%
    16:00 +36°C° 0 mm 7 mps 732 mmHg 34%
    17:00 +36°C° 0 mm 7 mps 732 mmHg 35%
    18:00 +35°C° 0 mm 7 mps 732 mmHg 37%
    19:00 +34°C° 0 mm 7 mps 733 mmHg 39%
    20:00 +34°C° 0 mm 6 mps 733 mmHg 42%
    21:00 +33°C° 0 mm 5 mps 733 mmHg 44%
    22:00 +32°C° 0 mm 5 mps 733 mmHg 45%
    23:00 +32°C° 0 mm 5 mps 733 mmHg 47%
    Show more